Theta_e
349 349 348 347 346 346 345 344 343 343 342 341 340 340 339 337 336 336 336 337 336 333 333 334 336 335 334 334 332 331 333 335 335 335 333 332 333 333 334 333 332 332 332 331 331 331 332 333 332 331 331 333 333 333 332 331 329 328 328 328 329 331 331 332 332 331 331 328 325 322 319 320 321 320 320 319 314 309 305 302 301 301 301 301 300
350 349 348 347 347 346 344 344 343 343 343 341 341 340 340 338 337 337 337 336 335 332 332 333 333 333 333 333 332 331 331 332 333 332 332 333 334 334 334 333 332 331 332 332 332 332 333 332 332 332 332 332 331 331 330 330 330 329 328 328 329 329 330 331 331 330 330 327 324 322 320 321 321 320 321 317 308 303 301 300 300 301 301 300 300
350 349 349 347 346 346 344 343 343 343 343 342 342 340 340 339 337 336 336 335 333 331 331 332 332 332 333 334 334 333 331 331 332 332 332 334 335 335 334 333 332 332 332 333 333 333 333 333 333 333 332 330 328 328 328 329 330 329 328 328 329 329 328 330 330 330 329 326 325 323 322 323 322 321 320 313 305 301 300 300 300 300 300 300 300
350 349 348 347 346 345 344 343 343 343 343 342 342 341 340 339 337 337 336 334 331 329 330 331 332 334 335 335 336 334 333 332 332 333 334 335 335 335 333 332 332 332 332 333 333 333 333 332 332 331 329 327 325 325 325 326 327 328 327 327 329 329 329 329 329 329 327 325 325 325 324 324 323 324 321 310 304 301 300 300 300 300 300 300 300
349 348 347 347 346 344 343 343 344 344 343 342 342 341 341 340 338 337 336 333 331 330 332 333 334 336 337 338 337 335 334 333 332 334 336 336 335 334 334 333 333 333 332 332 332 331 330 330 329 328 327 325 324 323 323 324 325 326 327 327 327 327 329 328 327 327 326 325 325 325 326 325 325 326 321 310 306 304 304 304 301 300 300 299 300
347 348 346 346 345 344 343 343 344 344 343 343 342 342 341 340 338 338 335 333 332 333 334 335 336 337 338 338 337 336 334 333 332 333 335 336 335 334 334 334 334 334 333 331 330 329 329 328 327 326 325 324 322 322 323 324 324 326 327 327 324 323 326 328 327 327 326 326 326 326 326 324 324 324 319 313 312 310 310 309 306 304 303 300 300
346 346 346 346 345 344 344 344 343 343 343 343 343 342 341 340 339 338 336 334 334 335 336 337 337 338 339 339 337 336 334 333 332 332 334 335 335 334 334 334 334 333 332 332 331 330 329 328 327 326 324 323 323 322 323 323 323 324 325 325 323 321 323 326 326 325 325 327 327 326 325 323 322 322 318 317 316 314 313 312 311 310 307 304 304
347 346 346 345 343 342 342 343 342 343 343 343 343 342 341 340 339 338 337 336 335 336 338 338 338 339 339 339 337 336 335 333 333 334 335 335 335 334 334 334 334 332 332 331 331 330 329 327 326 324 324 324 324 323 323 322 322 322 321 321 322 322 321 321 320 318 318 323 324 324 323 320 320 321 318 317 315 313 313 313 314 312 308 306 307
345 345 345 344 342 340 340 341 343 343 343 343 343 342 341 341 340 339 339 337 336 338 339 339 339 340 340 339 337 335 334 334 334 334 335 335 334 333 333 333 332 332 331 331 330 329 327 326 324 324 324 324 324 322 321 320 320 319 317 318 320 321 320 316 313 310 309 313 316 316 315 315 318 320 318 316 314 312 312 312 312 310 307 307 308
344 343 344 342 340 339 340 341 343 343 343 343 343 342 341 340 340 340 340 338 337 339 339 339 340 339 339 339 337 335 334 334 334 334 334 334 333 332 332 332 331 331 330 330 329 327 326 325 324 324 324 324 323 321 320 318 316 316 314 314 315 316 316 312 309 308 305 306 307 307 307 308 312 317 318 317 314 311 310 310 309 308 307 308 308
345 343 343 342 341 342 343 343 344 343 343 343 343 343 341 341 341 342 340 339 339 339 340 340 339 338 338 338 336 335 334 334 333 333 333 333 332 332 331 331 331 331 330 329 328 326 326 325 324 324 323 323 322 321 319 316 313 312 311 310 309 309 309 307 307 307 304 303 303 303 304 303 306 310 312 313 312 311 310 309 309 308 307 307 308
344 344 343 344 345 345 345 344 344 343 344 343 343 342 341 341 342 342 342 340 339 339 339 339 338 337 336 336 335 335 334 334 333 332 332 332 332 331 331 331 331 331 331 329 327 325 325 325 324 323 322 322 321 320 318 315 312 310 309 307 305 304 304 304 304 304 303 302 302 302 303 302 303 304 305 306 307 309 309 309 308 307 306 307 308
343 344 343 344 345 345 345 344 343 343 343 343 343 343 342 341 342 342 342 341 340 339 339 338 337 336 334 334 334 334 334 334 333 332 332 331 331 331 332 332 331 331 330 329 326 325 325 325 324 323 322 321 320 319 316 313 310 309 307 305 303 302 302 302 302 302 302 302 302 302 302 302 302 303 302 302 302 304 306 308 308 307 306 306 306
342 342 342 344 344 344 343 343 342 342 342 343 343 342 341 341 342 342 342 341 340 340 339 338 337 336 333 333 334 334 334 333 332 332 332 332 332 332 332 332 331 331 330 328 326 325 324 324 324 323 322 320 318 316 314 310 307 306 304 303 302 302 302 302 302 302 302 302 301 301 301 301 301 301 301 301 300 301 302 304 306 305 306 307 306
343 342 342 343 344 344 343 342 341 341 341 342 343 342 341 341 342 342 341 341 340 340 338 337 336 335 334 334 334 334 334 334 333 332 333 333 333 332 332 332 331 330 329 327 325 325 324 324 324 322 320 318 316 314 311 308 305 303 302 302 302 301 302 301 301 301 301 301 301 301 301 301 300 300 300 300 299 299 300 300 301 303 306 307 306
343 343 343 343 344 343 343 342 341 340 341 341 342 342 341 340 342 342 341 341 340 339 338 337 336 335 334 335 335 335 335 334 333 333 334 334 333 332 332 331 330 330 329 327 325 324 324 324 323 321 319 316 313 310 307 305 303 302 301 301 301 301 301 301 301 301 301 301 301 300 300 300 300 300 299 299 299 299 299 299 299 303 307 307 305
343 343 344 343 343 343 342 341 340 340 340 340 341 341 341 340 341 341 341 341 340 339 338 337 336 335 335 335 336 336 335 334 334 334 334 333 333 332 331 331 330 328 327 326 325 324 323 323 322 320 317 313 310 307 304 302 301 301 301 301 301 301 301 301 301 301 301 301 300 300 300 300 299 299 299 299 299 299 299 299 299 302 305 303 302
342 343 343 343 343 342 341 341 339 338 338 338 340 341 341 341 341 341 341 340 339 339 338 337 336 336 336 336 337 336 335 335 334 334 334 333 333 332 331 330 328 327 326 325 324 323 323 323 321 317 312 309 306 303 301 300 300 300 300 301 301 301 301 301 301 301 300 300 300 300 299 299 299 299 298 298 298 298 298 298 298 299 300 298 298
342 343 343 343 343 342 342 341 340 339 338 338 340 341 341 341 341 341 340 339 339 339 338 337 336 336 337 337 337 336 335 335 335 335 334 333 333 331 330 328 327 326 325 324 324 323 322 322 319 312 308 306 304 302 301 300 300 300 300 301 301 301 301 300 300 300 300 300 299 299 299 299 299 298 298 298 298 298 298 298 298 298 298 298 298
343 343 343 343 343 342 342 341 339 338 338 339 340 341 341 341 341 340 339 339 339 339 338 337 337 337 338 337 336 336 336 336 335 334 334 333 332 330 328 328 327 326 325 324 323 323 322 322 316 308 305 304 302 301 300 300 300 300 300 301 300 300 300 300 300 300 299 299 299 299 299 299 298 298 298 298 298 298 298 298 298 298 298 298 298
343 343 343 343 342 342 342 340 339 338 339 340 341 341 341 341 341 340 338 338 338 339 338 337 337 338 338 337 336 336 336 336 335 334 333 332 330 329 328 327 326 325 324 324 324 323 322 319 312 306 304 303 301 301 300 300 300 300 300 300 300 300 300 300 299 299 299 299 299 299 298 298 298 298 298 298 298 298 298 298 298 298 298 297 298
343 343 342 342 342 342 342 341 340 339 340 341 341 341 341 341 340 339 338 337 338 338 337 337 337 338 338 337 336 336 336 335 335 334 333 332 330 329 328 326 326 325 324 324 324 323 320 316 310 306 303 302 301 300 300 300 300 300 300 300 300 300 300 299 299 299 299 299 299 298 298 298 298 298 298 298 298 298 298 298 298 297 298 298 298
343 341 341 342 342 342 342 341 341 340 340 341 341 341 340 340 340 338 337 337 338 338 338 337 337 338 338 337 336 336 336 335 334 334 332 331 329 328 327 326 325 325 325 325 324 322 318 313 308 305 302 301 300 300 299 300 300 300 300 300 300 300 299 299 299 299 299 298 298 298 298 298 298 298 298 298 298 298 298 298 298 297 298 298 297
341 341 341 342 342 342 341 341 341 340 340 340 340 340 340 339 340 339 338 337 337 338 338 337 337 338 338 337 336 336 336 335 334 333 332 330 329 328 327 326 326 325 325 325 323 320 316 310 306 304 302 301 300 300 299 300 299 300 299 299 300 299 299 299 299 299 298 298 298 298 297 297 297 298 298 298 298 298 298 298 298 297 298 297 297
341 340 341 342 341 342 341 340 340 339 339 340 340 340 340 339 339 339 338 337 337 338 338 338 338 338 337 336 336 336 335 334 333 332 331 330 329 329 327 326 326 326 326 325 323 320 314 309 306 304 302 301 300 300 299 300 299 299 299 299 299 299 299 299 298 298 298 298 298 297 297 297 297 298 298 297 297 297 297 297 297 298 297 297 297
341 341 341 341 341 341 340 340 339 338 338 339 340 340 339 339 339 339 338 338 338 339 338 338 338 337 336 336 336 336 335 334 333 332 331 330 330 329 327 326 326 326 326 325 323 319 314 309 306 304 302 301 300 299 299 299 299 299 299 299 299 299 299 299 298 298 298 298 297 297 297 297 297 298 297 297 297 297 297 297 297 297 297 297 297
341 341 341 341 341 341 340 340 339 338 339 339 340 340 340 339 339 339 339 339 339 339 338 338 338 337 336 336 336 335 334 333 333 332 331 330 330 329 328 327 326 326 326 325 323 319 314 310 307 304 302 301 300 299 299 299 299 299 299 299 299 299 299 298 298 298 298 298 297 297 297 297 297 297 297 297 297 297 297 297 297 297 297 297 297
342 341 341 341 341 340 340 339 339 339 340 340 340 340 340 339 338 338 339 339 339 339 339 338 338 336 335 336 336 335 334 333 333 332 331 331 330 329 328 327 326 326 326 325 324 321 314 309 307 304 302 301 300 299 299 299 299 299 299 299 299 299 298 298 299 298 298 298 297 297 297 297 297 297 297 297 297 297 297 297 297 297 297 297 297
342 342 341 341 340 340 340 339 339 340 341 341 341 340 340 339 339 339 340 339 339 339 339 339 338 336 336 336 336 336 335 334 333 332 331 331 330 329 329 328 327 327 326 325 324 321 315 310 307 304 303 301 299 299 299 298 299 300 300 299 299 299 298 298 298 298 298 298 298 297 297 297 296 296 296 296 296 296 297 297 297 297 297 297 297
342 342 342 340 340 341 340 339 339 339 340 340 341 340 340 339 339 340 340 339 339 339 339 339 338 337 336 336 336 336 335 334 333 332 332 332 331 330 329 328 327 327 326 325 323 320 315 310 307 305 304 303 300 300 299 298 301 303 301 299 299 299 298 298 298 298 298 298 298 297 297 297 297 296 296 296 296 296 297 297 297 297 297 297 297
342 342 341 341 341 341 340 340 339 338 339 339 340 340 340 340 339 339 340 339 339 339 339 339 338 338 337 337 336 335 334 334 333 332 332 332 331 330 330 328 327 327 326 325 323 319 314 310 308 306 305 304 302 300 299 301 304 304 300 298 299 299 298 298 298 297 298 298 297 297 297 296 296 296 296 296 296 296 296 297 297 297 297 297 298
342 342 342 342 341 341 341 340 339 339 339 339 340 340 339 339 339 339 339 339 339 339 339 339 338 338 337 336 336 335 333 333 332 332 332 332 331 330 330 328 327 327 326 324 321 318 314 310 308 307 306 305 304 301 301 304 305 301 298 299 299 299 299 298 297 297 297 297 297 297 297 296 296 296 296 296 296 296 296 296 296 296 297 297 297
341 341 342 342 342 341 341 340 340 340 340 339 339 339 339 339 339 339 339 339 339 339 339 339 338 337 336 336 336 335 334 333 332 331 332 331 330 330 329 328 327 327 326 323 319 316 313 311 309 308 307 306 304 302 303 304 302 299 298 299 299 299 298 298 297 297 297 297 296 297 297 296 295 296 296 296 296 296 296 297 297 296 297 297 297
337 339 341 342 342 342 341 340 340 340 340 340 339 339 338 338 338 338 338 338 339 339 339 339 338 337 336 336 335 334 334 332 332 332 332 331 330 329 329 327 327 326 325 322 319 317 314 311 309 308 308 306 305 305 305 303 301 299 299 299 300 299 298 298 298 297 297 298 298 298 298 297 296 295 296 296 296 296 297 297 297 297 297 297 297
331 333 335 339 341 342 341 341 340 339 340 340 340 339 338 338 338 338 338 338 339 339 338 338 338 337 335 335 335 334 333 333 332 332 331 330 330 329 328 327 327 326 325 323 320 317 315 312 310 309 308 306 305 306 306 302 300 300 300 300 300 299 298 299 299 298 299 301 302 302 301 299 297 296 297 296 296 296 297 296 297 297 297 297 297
329 330 331 335 338 340 340 341 340 339 340 340 340 339 338 337 337 337 337 338 338 338 338 337 337 336 335 335 335 334 333 333 332 331 330 330 329 329 328 327 326 325 323 321 319 317 315 312 310 309 308 306 305 306 305 302 301 301 301 301 301 300 300 301 300 300 302 304 305 304 303 300 297 296 297 297 296 296 296 296 296 297 297 297 297
329 330 331 332 335 337 340 341 340 339 340 340 339 339 338 338 337 337 337 338 338 337 337 336 336 336 335 335 334 334 334 333 332 331 330 329 329 328 328 327 326 326 324 321 318 316 314 312 310 308 306 304 304 305 304 302 302 301 301 301 301 301 302 303 302 302 304 305 305 304 303 302 298 296 297 296 296 296 296 296 297 297 297 297 296
327 329 330 331 334 336 339 340 340 340 340 340 339 339 338 338 337 337 337 338 338 337 336 336 336 335 335 334 334 333 333 332 332 331 329 329 328 328 328 327 327 326 324 322 319 317 315 313 310 308 305 303 303 304 303 302 302 301 300 300 301 303 303 303 303 303 304 305 304 303 302 300 298 296 296 296 296 296 296 296 297 297 297 297 296
326 327 329 331 335 337 339 340 340 340 340 339 339 338 338 337 337 337 337 337 337 337 336 335 335 334 334 333 333 333 333 332 331 330 329 329 328 328 328 327 327 326 324 321 319 317 315 313 310 307 304 302 302 303 302 301 301 300 300 300 301 303 303 302 302 303 303 303 302 300 298 297 296 295 296 296 296 295 296 296 296 297 297 296 296
325 325 327 331 336 338 339 339 340 340 340 339 339 338 337 337 337 337 337 337 336 336 335 335 334 334 333 333 332 333 332 332 331 330 329 328 328 328 328 327 327 325 322 320 319 317 315 312 309 306 302 301 302 301 300 300 300 299 299 298 298 299 300 300 301 302 301 300 299 296 296 296 297 295 295 295 295 295 296 296 296 297 297 296 297
327 327 328 331 335 337 337 339 340 340 339 339 338 338 337 337 336 336 336 336 336 336 335 334 334 333 332 332 332 332 331 331 331 330 329 328 328 328 327 327 326 324 321 320 318 316 314 311 307 303 301 300 301 300 299 299 300 299 298 296 296 297 297 298 300 300 299 298 297 296 296 297 297 295 295 295 295 295 296 296 296 297 297 297 297
329 331 331 333 335 337 338 339 339 339 339 338 338 337 337 336 336 336 335 335 335 335 335 334 333 332 331 331 331 331 331 330 330 329 328 328 327 327 327 326 325 323 321 320 318 315 313 309 304 301 300 299 299 299 299 300 301 301 299 296 295 295 296 297 298 298 298 299 299 298 297 298 297 296 295 295 295 295 296 296 296 297 297 298 298
333 334 334 334 337 338 339 339 339 339 339 338 337 336 336 335 335 335 335 335 334 333 333 333 332 332 331 331 331 331 330 330 329 329 328 328 328 327 326 325 324 322 321 320 317 314 310 306 303 301 299 298 299 299 300 301 302 302 301 297 295 295 296 296 297 298 299 300 300 299 298 298 299 298 296 296 296 295 296 296 296 297 298 298 298
336 336 336 335 337 339 339 338 338 338 338 337 336 336 335 335 335 335 334 334 334 333 332 332 332 331 330 330 330 330 330 329 329 328 328 328 327 326 325 323 321 320 320 318 316 313 309 306 304 302 299 299 299 300 301 302 302 302 301 297 295 295 295 295 297 299 300 301 300 300 299 300 301 300 299 298 297 296 296 296 297 298 299 299 299
337 338 338 337 338 339 338 338 337 337 336 336 336 335 335 335 335 334 334 334 333 332 331 331 330 330 329 328 328 328 328 328 328 327 327 327 326 326 324 322 319 319 319 318 316 313 309 306 305 303 302 301 300 300 302 303 302 301 299 296 295 295 295 295 297 300 301 301 301 300 301 301 302 302 301 299 298 296 295 297 298 300 300 300 300
338 338 339 339 338 338 338 337 337 336 336 335 335 334 335 334 333 333 333 333 332 331 331 330 329 328 327 326 326 326 326 326 325 325 325 325 326 326 324 322 320 319 319 318 315 313 310 307 305 303 303 302 302 302 304 303 301 299 298 295 295 295 294 295 298 301 301 301 301 301 301 302 302 302 301 300 298 295 295 298 300 301 301 301 301
336 335 336 338 338 338 337 337 336 335 335 335 334 334 334 333 332 332 331 331 331 331 331 330 329 328 327 326 326 326 326 325 324 323 323 324 324 324 323 322 321 321 319 317 315 314 311 308 305 304 304 304 305 305 305 302 299 298 297 295 295 295 294 294 297 300 301 301 301 301 301 302 302 302 302 300 298 295 295 299 302 302 302 302 302
333 332 333 335 336 336 336 336 335 335 334 334 334 333 332 332 331 331 331 330 330 330 330 330 329 328 327 327 327 327 327 326 324 324 324 324 323 323 323 323 323 322 321 319 318 315 312 309 307 307 307 307 307 306 303 299 297 296 295 295 295 295 294 294 295 298 300 300 301 301 301 301 301 301 300 299 297 295 295 299 302 303 302 302 302
332 330 332 334 334 335 335 335 334 334 334 334 333 332 332 332 331 330 330 330 330 330 330 329 328 328 327 327 327 326 326 326 326 325 324 324 323 323 323 323 322 322 321 320 319 317 314 311 310 310 311 309 307 304 301 297 296 295 295 296 296 296 296 295 294 296 298 300 300 300 300 300 300 300 298 297 296 295 296 299 303 303 302 302 302
332 331 332 333 333 333 334 333 333 333 333 333 332 332 332 331 331 331 331 330 330 329 328 328 328 327 327 326 326 325 325 325 325 325 323 321 321 321 322 322 321 321 319 318 317 315 313 312 311 311 310 307 304 302 299 297 296 295 295 296 296 295 295 295 294 294 296 298 299 299 299 299 299 298 297 296 295 295 297 301 303 302 302 302 301
331 332 332 332 331 332 332 332 333 333 332 332 332 332 331 331 331 331 330 330 330 329 328 328 328 327 327 326 325 324 323 323 323 323 322 320 319 318 318 319 319 319 317 316 314 312 311 311 310 309 307 304 300 298 297 297 296 296 295 295 295 294 294 294 294 294 294 296 297 297 298 297 297 297 296 295 295 295 298 301 302 302 301 302 301
Wind_Speed
38 37 38 36 34 31 29 30 33 35 34 34 34 32 32 33 34 35 35 33 31 31 30 28 27 26 26 23 20 21 22 21 20 19 18 16 15 14 13 12 11 11 11 12 14 15 16 16 16 15 15 15 15 14 16 17 13 12 13 13 16 16 15 17 16 15 12 9 7 5 7 8 6 5 4 4 3 3 3 3 4 4 3 4 5
39 38 38 36 34 32 31 33 36 37 37 36 35 33 32 33 34 36 36 34 33 33 33 29 28 27 25 23 20 22 23 22 21 20 18 16 15 13 13 13 12 12 13 13 15 16 17 17 16 15 15 14 15 16 18 17 15 13 13 13 15 16 17 17 16 15 11 8 6 6 9 7 4 4 4 4 3 2 2 2 4 4 4 3 5
41 41 40 39 37 35 33 34 37 39 38 37 36 34 33 33 34 36 36 34 34 35 33 29 27 26 24 21 21 22 22 21 20 19 18 17 15 14 14 15 14 14 14 14 15 15 16 16 15 14 14 13 15 17 19 19 17 16 13 14 16 17 18 18 17 16 12 10 8 6 7 6 4 5 5 5 3 2 1 2 2 4 4 4 5
43 43 43 41 40 38 36 36 38 39 38 38 39 37 35 34 34 35 35 34 35 35 33 29 27 25 23 21 20 22 22 21 21 19 18 18 16 16 16 16 15 16 17 16 16 16 16 16 15 14 13 13 13 14 16 16 17 16 14 16 20 18 19 20 19 18 15 12 9 5 5 5 5 6 7 6 4 3 2 1 3 5 5 6 6
46 46 46 45 44 41 38 38 40 40 40 39 40 39 36 35 35 35 35 36 36 35 32 29 28 26 25 23 22 23 23 23 23 21 20 19 18 18 17 15 14 14 15 16 16 17 17 16 15 13 12 12 13 13 13 12 14 16 15 17 21 20 20 22 20 18 15 12 9 6 6 7 8 7 7 7 6 5 2 2 3 4 6 6 6
48 49 49 48 47 44 41 41 41 42 42 40 40 39 36 35 35 34 35 37 37 35 33 31 30 30 29 28 28 27 26 25 25 24 22 21 19 19 17 16 14 14 14 14 15 15 14 15 15 13 13 13 13 14 13 12 14 18 18 17 19 20 21 21 20 18 16 13 11 9 7 6 7 8 8 7 7 5 2 1 2 3 6 7 7
50 50 51 49 47 45 44 44 43 43 43 42 41 38 35 35 35 35 35 37 37 35 33 32 32 32 31 31 30 29 28 27 25 24 23 20 19 19 19 18 16 16 15 15 15 14 12 14 15 13 13 13 12 13 14 14 15 17 18 19 19 19 20 19 19 18 18 17 15 12 9 6 5 6 7 6 5 5 2 2 3 4 5 6 7
50 50 51 50 48 46 47 46 44 44 43 43 42 38 36 35 34 35 36 37 38 35 34 34 34 34 33 31 30 29 28 27 26 24 23 21 20 21 21 20 18 17 17 16 16 14 12 14 15 13 13 13 13 14 14 15 14 14 15 17 19 18 17 17 18 18 19 19 18 16 12 8 6 7 7 5 3 3 2 2 3 3 4 5 7
51 51 51 52 50 48 48 47 46 45 43 43 43 39 37 36 34 35 36 37 38 36 35 35 35 35 34 32 31 30 28 27 26 25 24 22 21 21 21 20 19 18 17 17 16 14 12 14 15 14 13 13 13 12 12 13 13 12 13 15 17 18 16 14 14 15 16 18 18 16 13 11 11 11 9 7 4 2 1 1 1 2 3 4 4
51 52 53 53 51 50 48 47 46 45 43 43 42 40 38 36 36 37 37 37 38 37 37 36 36 36 34 32 32 31 30 29 27 24 24 23 22 21 21 21 21 19 18 17 16 13 12 13 14 14 14 13 12 11 11 11 12 13 13 13 15 16 16 14 13 13 13 14 14 14 13 13 14 14 12 11 9 6 4 1 0 2 4 4 4
49 50 52 52 50 49 48 47 46 44 43 44 43 42 39 37 39 39 38 37 38 38 38 38 37 36 35 34 33 32 31 31 29 26 24 23 22 21 22 23 21 18 18 17 16 16 14 13 13 14 14 13 12 11 11 11 12 13 13 14 15 15 15 14 13 13 12 12 11 12 12 12 12 13 13 13 12 9 6 4 3 1 3 4 4
48 48 48 48 46 45 45 45 46 45 45 45 45 43 40 39 41 40 39 38 38 39 38 38 38 36 35 36 34 32 31 31 30 27 26 24 23 22 23 24 21 20 19 18 18 17 15 13 13 15 15 14 13 11 11 12 13 13 13 14 14 14 15 14 13 12 12 11 10 10 11 10 10 10 10 12 12 10 8 6 5 4 1 1 2
48 50 48 47 46 45 46 45 45 46 46 47 46 44 41 42 43 42 40 39 39 39 38 37 36 34 34 35 34 32 31 29 28 27 25 23 22 23 24 24 23 21 19 19 19 17 15 14 14 15 16 15 14 12 10 12 12 13 13 13 13 13 14 13 12 12 11 11 10 10 10 9 9 8 7 8 10 10 10 9 7 4 2 2 2
49 52 50 48 48 48 48 47 47 47 48 47 47 45 43 44 45 44 41 40 39 39 38 37 35 33 34 34 33 32 30 28 28 26 22 20 21 24 25 23 22 21 19 18 19 18 16 16 15 16 16 14 13 12 11 11 11 12 12 12 12 13 13 12 11 11 11 10 10 9 9 8 8 7 7 7 8 8 9 10 9 6 4 2 2
49 51 50 48 50 49 48 48 47 48 48 48 47 46 45 46 47 46 44 42 40 38 37 37 36 34 34 33 33 33 30 29 27 24 21 19 21 24 24 23 21 20 18 18 19 19 18 17 16 15 14 14 13 12 11 11 11 11 11 12 12 12 12 11 10 10 10 9 9 8 7 7 6 7 6 6 6 7 7 7 7 6 7 5 4
48 49 49 48 50 50 49 48 47 48 48 47 48 48 48 48 48 48 46 43 41 37 36 37 36 35 34 33 34 33 31 29 27 24 23 21 21 24 24 22 21 20 18 16 17 18 18 16 13 12 12 13 13 12 11 10 11 11 12 12 13 13 12 11 11 10 10 9 8 7 6 6 5 6 6 5 5 5 5 4 5 7 9 6 5
46 49 50 50 51 50 49 47 46 47 47 48 49 50 50 49 49 48 46 44 41 39 36 35 36 36 35 34 35 34 32 30 28 26 24 22 21 23 23 22 22 20 17 15 14 15 15 14 11 10 11 13 13 12 11 11 12 12 13 13 13 13 12 12 11 11 10 8 7 6 6 6 6 5 5 4 5 4 4 3 3 6 7 5 5
47 52 53 53 53 51 50 48 45 45 46 47 49 50 50 49 49 48 47 45 43 41 38 36 37 37 36 36 36 34 33 30 28 26 24 23 22 23 23 23 22 19 16 15 13 13 13 13 11 10 12 13 13 12 12 12 13 13 14 13 13 13 12 12 11 10 8 8 7 7 7 7 6 6 5 5 4 4 4 4 4 5 5 3 3
48 51 52 54 54 53 51 48 45 44 44 46 47 49 48 47 46 46 46 45 42 40 38 37 38 38 37 37 36 34 32 30 28 26 24 23 23 24 25 24 21 18 15 14 13 13 14 14 12 12 13 13 13 13 13 13 13 14 14 14 13 13 11 11 10 9 9 9 8 8 8 8 7 7 7 6 6 5 4 5 5 4 3 3 1
49 51 53 55 54 53 51 47 45 44 45 45 46 48 47 45 45 45 45 44 42 40 39 39 39 39 38 37 35 34 32 30 28 27 25 23 24 25 25 22 20 18 15 14 14 14 14 13 12 13 13 13 13 13 13 14 14 15 14 14 13 12 11 10 10 10 10 10 9 9 8 7 8 8 7 7 7 6 5 5 4 3 2 1 2
51 52 54 55 52 50 48 45 44 44 44 44 45 46 46 44 44 44 44 44 43 42 41 40 40 40 39 38 36 35 33 30 29 27 25 24 24 24 24 21 19 17 15 14 13 13 14 13 13 14 14 14 13 13 14 14 15 15 15 14 13 12 11 11 12 12 11 10 9 8 7 7 7 7 7 7 7 6 6 5 3 2 1 2 3
52 54 54 52 49 47 45 43 43 44 44 44 44 45 44 44 44 43 44 45 44 43 41 41 41 41 41 39 37 36 33 31 30 28 26 25 24 24 23 20 18 16 14 12 11 13 13 13 15 15 14 14 14 13 15 15 15 15 15 15 14 13 13 13 13 12 11 10 9 8 7 7 7 8 8 8 7 6 5 4 3 1 1 3 5
53 54 52 49 47 46 44 44 44 44 45 45 45 45 44 44 44 43 44 45 43 43 42 41 42 42 41 40 38 37 35 33 31 29 27 26 25 24 23 20 17 15 13 11 11 13 14 14 15 15 15 14 14 14 16 16 16 16 16 15 14 14 14 13 13 12 11 10 9 9 9 8 8 8 8 8 7 5 3 2 1 0 2 4 6
52 51 49 47 46 45 44 44 45 45 45 45 47 48 45 44 43 42 43 43 43 43 42 42 43 42 41 40 39 37 36 35 32 30 29 27 25 24 22 20 18 16 14 12 11 13 14 15 16 16 15 15 15 16 17 16 16 16 17 16 15 14 14 13 12 12 11 9 9 9 9 9 9 8 7 7 7 4 2 1 1 1 3 5 7
49 47 46 45 45 46 46 46 46 46 46 47 47 48 46 45 44 42 41 42 43 43 43 43 43 42 41 41 39 39 38 36 34 32 31 29 26 23 22 22 20 18 15 12 12 14 14 15 16 16 15 16 16 17 17 17 17 17 17 16 14 14 14 14 13 12 11 10 10 10 10 10 9 7 6 6 5 4 2 1 2 3 4 6 8
49 46 46 47 47 48 49 48 47 47 47 48 47 46 45 45 44 42 41 42 43 44 43 44 43 42 42 41 40 40 40 38 36 34 32 29 25 23 23 23 20 17 15 13 13 14 15 15 15 16 16 16 17 18 18 18 18 18 18 16 15 14 14 14 13 13 12 11 10 10 10 9 7 5 5 5 5 4 2 1 2 4 5 6 8
48 48 47 47 48 48 49 49 47 47 47 47 47 46 45 44 43 42 42 42 43 44 44 45 44 42 42 41 40 40 40 39 37 35 33 29 26 24 24 22 19 18 17 15 14 14 15 16 16 17 17 17 18 19 19 19 19 19 17 15 15 15 15 14 13 13 12 11 11 10 9 8 5 4 5 5 5 4 3 2 3 4 6 7 9
45 47 47 47 47 48 49 49 48 46 45 45 45 44 44 43 43 42 42 43 44 45 46 45 44 43 42 41 40 39 39 39 37 36 33 29 26 25 24 20 19 20 19 17 15 13 15 17 17 18 18 18 19 19 19 19 20 18 16 16 17 17 15 14 13 12 12 12 11 10 8 7 6 6 6 6 4 4 3 2 3 5 7 8 10
42 44 47 48 48 48 48 49 47 44 43 43 43 43 42 42 42 42 43 43 43 45 46 46 45 44 43 42 40 40 39 38 38 36 32 29 28 26 24 21 21 22 21 18 15 14 16 19 19 19 19 19 19 19 19 21 19 17 17 18 18 17 15 14 13 13 13 13 12 10 8 8 7 7 6 5 4 3 3 3 4 6 7 9 10
43 45 47 48 47 47 47 46 45 44 43 42 42 43 43 42 42 42 44 43 42 44 45 46 46 45 44 43 42 40 39 39 38 35 31 29 29 27 25 23 23 24 22 19 16 16 18 20 21 21 21 21 20 20 20 20 17 17 19 20 19 17 15 15 14 13 13 13 11 10 9 9 8 7 6 5 4 3 3 4 5 7 8 9 11
41 44 46 46 45 44 44 44 44 44 44 43 42 42 43 42 42 43 44 44 43 44 44 45 45 45 45 45 43 40 39 39 38 35 31 30 31 30 27 25 24 25 23 20 18 19 20 22 23 23 23 23 21 20 20 18 17 18 20 20 19 17 15 15 14 14 13 13 12 11 10 9 9 8 7 6 4 3 3 5 6 7 9 10 12
30 34 37 40 41 41 42 43 43 43 44 44 44 43 42 42 42 43 44 45 43 44 45 45 45 45 46 45 43 41 40 39 37 34 32 33 33 32 29 27 26 26 24 22 21 21 23 24 25 25 25 24 21 20 19 17 18 20 20 19 18 16 15 15 15 14 13 12 12 11 11 10 9 9 8 6 4 3 4 5 6 7 9 11 12
20 24 27 32 37 40 42 42 42 42 43 43 44 43 42 42 42 42 43 44 43 43 45 46 46 46 46 45 43 41 40 38 36 34 33 35 35 33 31 29 28 27 26 24 24 24 25 26 27 27 27 25 21 19 19 19 19 20 20 19 17 16 16 15 15 14 13 12 12 11 10 10 9 9 8 7 5 5 5 5 6 7 9 10 11
23 25 27 31 36 39 41 42 42 41 41 42 42 42 41 40 40 41 43 43 43 44 46 48 47 46 46 44 42 40 38 36 34 34 35 37 37 34 31 30 30 29 27 26 26 26 27 27 29 29 28 26 22 19 18 19 20 20 20 19 18 17 16 15 14 14 12 12 12 11 10 9 10 10 9 8 7 6 5 5 6 8 9 10 11
31 31 33 35 37 38 40 41 41 41 41 42 42 40 39 39 39 41 42 43 43 43 45 47 47 46 45 43 40 38 35 33 34 36 36 37 36 34 33 33 31 29 28 27 27 27 28 29 30 29 28 27 23 18 17 19 20 20 20 19 18 17 16 14 13 13 12 12 12 11 10 10 11 11 9 7 7 6 5 5 6 8 9 10 10
32 33 35 37 37 38 39 41 41 42 42 42 42 41 39 38 38 39 41 43 44 44 45 46 45 45 44 42 40 37 34 33 35 38 38 38 37 36 35 35 32 29 29 28 28 28 29 30 31 30 29 29 25 19 17 20 21 21 21 19 18 17 16 14 14 14 13 13 13 13 12 11 11 10 8 6 6 5 5 5 6 8 8 9 10
28 31 33 35 37 38 40 41 42 43 43 42 42 41 39 37 38 39 41 43 44 44 46 47 46 45 44 42 40 38 35 34 37 39 40 39 38 37 37 35 32 30 30 29 29 29 29 30 31 31 30 30 26 19 18 22 22 22 22 20 19 19 17 16 16 16 16 16 16 16 16 15 14 11 8 7 7 6 5 5 6 7 8 9 8
25 29 32 35 38 41 42 43 43 43 43 43 42 41 39 38 38 40 42 44 45 44 45 46 46 46 44 42 40 37 34 35 38 40 40 40 39 38 36 33 31 30 31 30 29 29 29 30 31 32 31 30 26 20 19 22 23 23 23 22 21 21 19 18 19 19 20 19 18 18 18 17 16 13 9 7 7 6 5 6 7 7 8 7 5
24 26 31 35 40 43 44 43 44 44 43 43 42 40 38 38 38 40 42 44 45 46 46 46 46 45 43 40 39 37 35 35 37 40 41 41 40 38 35 32 31 32 32 30 27 27 28 30 32 32 31 30 26 22 21 23 22 23 24 23 24 23 21 21 21 21 20 19 18 18 18 16 15 13 10 8 7 6 5 6 7 7 7 6 4
24 24 30 36 41 44 44 44 45 46 45 44 41 39 38 37 38 41 44 43 43 44 44 44 43 42 40 39 38 37 35 35 36 40 42 41 40 38 36 34 33 33 32 28 25 26 27 29 31 31 31 30 26 23 23 23 22 23 24 24 26 27 25 24 23 21 19 17 17 18 17 15 14 13 10 9 8 6 6 6 7 7 6 5 3
23 26 33 39 41 42 43 44 46 46 46 44 41 39 39 37 37 42 45 45 44 43 42 42 41 40 39 38 36 35 34 33 34 38 41 42 41 39 37 35 34 34 31 27 25 25 25 25 27 29 30 29 26 24 24 24 22 22 24 25 26 28 27 26 23 20 18 16 16 17 16 14 12 12 11 10 9 7 6 6 7 6 6 5 3
27 31 36 38 39 40 42 44 45 45 44 42 40 39 39 37 36 39 42 42 43 44 43 42 40 37 36 35 33 32 32 30 32 36 40 41 39 37 35 35 36 34 30 26 25 24 23 24 25 27 29 28 26 26 25 24 22 21 23 25 26 27 27 27 24 20 17 16 15 16 15 12 11 11 11 10 9 7 6 6 6 6 5 4 2
31 34 37 38 38 40 42 43 43 42 42 40 39 39 39 37 37 37 37 38 38 40 40 39 36 34 34 34 33 32 31 30 32 36 37 38 38 37 38 38 37 34 30 27 25 25 25 25 26 27 27 27 28 27 25 23 22 21 22 24 26 26 27 27 25 21 19 18 17 16 14 11 10 11 11 10 9 7 6 6 6 5 4 3 2
31 34 36 37 39 41 41 41 41 40 40 39 38 37 36 37 38 38 37 38 38 37 37 36 34 34 35 35 34 32 31 30 32 35 36 38 39 40 40 40 37 33 29 27 27 27 26 26 26 27 27 28 30 28 25 23 22 21 21 24 26 26 26 26 25 23 21 20 19 17 14 11 10 11 10 10 9 8 7 6 5 4 3 3 2
29 33 36 38 40 41 41 39 37 36 37 36 34 33 34 34 35 35 37 40 40 37 36 36 37 37 38 37 35 32 31 30 32 35 37 39 40 40 40 38 35 31 29 28 28 27 26 25 26 27 28 28 29 28 25 22 22 22 22 24 25 25 26 27 26 24 23 21 20 18 15 13 12 13 12 11 10 9 7 6 5 4 3 3 3
23 30 34 37 39 40 39 38 35 34 35 33 30 31 33 33 33 33 36 39 39 37 36 38 39 40 40 39 36 34 33 33 34 36 36 37 37 37 37 35 33 30 29 29 28 27 26 26 27 27 27 28 28 27 25 22 22 23 23 24 25 25 27 28 28 26 24 22 20 19 17 15 15 15 15 13 11 10 9 7 5 3 3 3 4
20 23 26 32 37 37 36 36 34 34 35 33 31 30 30 30 32 33 33 35 36 38 40 41 41 41 42 40 36 34 34 35 36 36 36 35 34 34 34 33 32 30 30 30 29 27 27 28 27 27 27 27 27 26 24 23 24 24 25 25 26 26 27 29 30 28 26 24 22 20 18 17 17 17 17 15 13 11 10 8 5 4 4 4 5
22 19 18 23 30 32 32 33 34 35 35 34 32 30 28 27 30 31 32 35 37 40 42 42 42 42 42 40 36 34 33 33 34 35 34 34 34 34 32 31 29 28 28 28 28 28 28 27 26 26 26 27 27 25 23 22 23 24 25 26 26 26 27 29 30 29 28 25 23 22 21 20 19 19 18 16 14 13 12 10 6 5 6 7 6
23 21 20 21 23 27 30 32 33 33 34 34 33 31 30 30 30 31 33 36 38 39 40 41 42 41 41 38 36 33 32 31 32 32 33 33 33 31 29 27 26 26 26 24 24 25 24 23 23 24 25 26 25 21 18 18 19 21 23 24 25 25 26 27 28 29 28 27 26 25 24 23 22 21 18 17 15 14 12 10 7 6 7 8 8
21 21 22 22 20 22 25 29 30 30 31 32 31 30 31 32 32 32 32 33 37 40 40 40 40 39 37 35 33 34 33 33 33 34 34 34 33 30 28 26 25 25 25 24 22 21 19 19 20 21 22 21 19 15 12 13 15 18 21 22 22 23 23 24 26 27 29 29 29 28 27 26 24 22 19 17 16 14 13 12 9 6 7 9 11
20 21 23 22 19 20 23 27 29 28 28 28 27 27 28 30 31 32 31 30 34 37 38 38 37 34 31 30 31 34 35 35 35 35 35 35 34 32 30 28 26 25 23 23 22 20 17 17 18 19 19 19 18 16 13 12 13 15 19 22 22 21 22 22 24 26 29 31 31 30 29 28 26 24 21 19 17 16 16 15 11 7 8 11 13
Wind_Direction
184 186 189 192 194 195 194 192 190 192 193 196 200 200 201 202 203 206 208 212 213 207 202 197 192 190 195 201 196 191 189 190 196 202 207 207 209 211 212 214 215 214 212 204 200 200 204 210 211 213 211 209 211 217 226 229 222 213 211 196 189 199 206 211 220 224 228 237 240 223 188 183 197 209 222 246 246 231 235 265 298 311 310 317 321
181 183 188 191 192 192 192 192 191 193 193 196 201 202 204 207 209 208 207 211 212 207 203 199 197 199 203 203 197 195 196 198 202 204 206 204 205 212 212 209 207 208 207 200 199 204 208 210 214 218 218 217 221 222 224 225 222 218 217 202 192 199 206 209 215 221 230 234 225 191 169 168 185 198 221 247 231 202 225 259 289 309 315 317 309
178 181 186 190 191 190 193 194 194 196 196 199 204 205 209 211 211 209 209 211 209 205 204 202 201 204 208 204 198 198 199 201 204 204 204 204 204 208 211 208 201 200 200 200 204 211 215 214 216 221 224 226 225 216 213 218 220 220 216 200 193 198 203 206 212 218 221 216 213 201 182 184 196 199 213 226 213 185 215 262 305 342 349 323 307
176 180 184 187 189 190 194 196 195 197 199 201 204 205 210 213 211 210 209 209 207 204 205 205 203 203 205 204 200 200 200 200 200 201 205 206 205 206 210 211 205 201 200 200 205 213 221 225 228 228 225 226 226 219 213 213 212 212 208 191 191 200 203 205 212 216 218 215 211 200 192 206 220 216 206 202 203 183 160 9 359 1 350 325 318
177 179 182 185 188 191 197 199 197 198 200 203 205 204 208 213 213 210 209 208 206 204 204 203 202 200 197 196 195 195 199 201 198 198 202 205 206 206 210 213 210 209 210 209 210 217 226 231 233 229 223 222 225 225 222 215 207 206 206 195 193 201 209 212 214 215 219 221 211 194 194 213 224 220 203 197 200 183 151 9 4 4 354 347 351
182 182 185 187 189 192 197 198 198 199 202 206 206 204 207 213 211 209 209 208 205 203 202 203 202 200 197 194 192 193 197 202 202 203 203 203 204 205 207 207 204 208 218 223 222 224 227 226 225 219 217 218 218 222 223 222 212 206 208 205 197 200 208 215 215 212 216 219 213 206 205 212 210 201 193 196 206 201 204 262 270 343 3 8 15
185 185 186 188 190 192 196 199 202 203 203 205 204 204 209 211 209 208 210 208 205 202 202 203 202 202 200 198 197 199 200 202 206 209 208 206 204 204 206 203 202 209 221 230 233 232 225 219 218 215 215 216 216 219 221 221 215 208 209 208 201 202 205 212 218 218 219 218 217 217 224 235 224 209 206 206 218 224 227 242 270 319 352 3 5
183 184 186 189 194 197 200 202 204 204 202 202 202 204 208 209 207 208 210 210 206 203 202 203 202 203 201 199 200 203 205 205 205 208 208 208 206 207 208 204 202 211 221 228 233 236 227 216 214 212 212 215 217 219 218 218 215 210 209 203 203 209 209 212 219 220 219 219 221 225 231 237 227 223 223 213 227 254 252 267 279 299 337 352 348
185 187 189 192 198 203 205 203 202 202 201 201 201 203 206 206 205 207 211 211 207 204 204 203 203 204 203 201 201 203 207 209 207 207 209 209 210 208 206 203 202 208 218 226 231 234 225 213 212 212 213 218 220 222 220 216 215 215 210 203 207 215 218 222 224 221 219 218 220 220 219 216 208 209 210 202 208 239 257 301 320 296 335 348 335
189 192 193 196 200 203 204 201 199 200 201 201 200 200 203 204 203 206 212 212 207 205 206 205 204 205 206 206 206 204 206 210 210 210 210 211 210 206 201 200 203 207 215 225 229 225 213 206 211 216 220 225 225 227 225 217 215 216 211 209 213 219 224 230 232 228 221 216 214 211 208 209 207 208 209 207 214 225 229 215 93 331 336 339 335
189 193 195 197 200 199 198 197 197 199 199 199 199 198 201 203 203 206 211 212 209 206 207 207 207 208 212 213 210 207 208 210 211 211 212 212 209 204 199 199 203 207 212 221 224 219 211 206 211 218 223 229 231 230 229 221 214 213 212 213 216 220 224 227 230 229 222 216 214 210 212 215 212 213 215 216 219 217 211 201 190 239 312 322 331
189 190 192 193 194 192 193 194 194 196 197 197 198 198 200 204 204 205 209 211 210 208 209 209 209 211 214 213 210 210 212 213 214 216 217 216 210 203 200 200 201 206 213 220 220 217 217 214 216 221 224 229 234 233 228 222 216 214 215 216 218 220 221 223 224 223 220 220 219 216 221 228 228 228 228 227 226 218 208 194 178 184 209 323 319
187 187 190 190 190 190 192 193 193 196 197 197 198 198 201 205 205 205 208 210 211 211 210 208 210 212 209 208 209 211 213 216 218 220 219 219 213 205 204 206 205 208 214 221 221 217 216 222 226 227 226 229 235 235 229 221 218 218 218 218 219 218 218 218 217 218 220 223 225 225 231 239 240 243 246 242 238 233 225 212 204 213 190 90 11
186 186 188 188 188 191 193 194 195 197 198 197 198 199 202 205 205 205 208 211 212 211 210 210 212 211 205 205 208 210 213 217 221 220 217 219 215 207 209 213 213 214 214 216 221 220 217 224 230 228 225 226 231 233 227 219 216 216 217 216 214 213 213 214 214 218 222 224 228 231 234 240 243 243 248 248 245 241 233 223 222 222 192 134 61
186 184 186 187 188 191 194 195 196 198 198 197 198 200 204 206 205 205 207 210 211 210 209 210 212 208 203 204 208 210 214 218 220 219 219 223 216 208 210 216 218 220 218 214 217 222 224 225 228 227 225 223 224 227 223 217 214 212 212 210 208 207 207 210 213 217 221 224 227 230 232 237 238 237 238 238 238 236 234 232 229 207 189 172 122
182 181 182 184 188 191 193 194 196 199 198 197 200 202 204 206 205 204 206 207 210 209 207 210 211 205 201 203 207 211 215 217 218 217 220 224 217 210 211 215 219 223 225 220 214 218 224 226 228 229 223 218 217 219 217 214 212 208 206 204 203 202 203 207 211 214 217 218 219 222 226 227 224 227 229 223 225 228 228 233 223 198 195 201 181
177 178 181 183 188 191 193 195 196 199 199 199 201 203 204 206 204 203 204 205 208 209 208 209 208 202 200 204 209 212 215 217 218 217 220 223 215 210 212 215 218 223 225 221 214 216 224 230 238 230 212 206 208 211 209 208 207 204 204 204 203 203 204 207 211 214 216 216 217 217 219 217 209 206 210 209 211 216 212 207 198 190 192 212 221
174 178 182 184 188 192 194 196 199 203 203 201 202 203 205 206 204 203 203 204 208 210 209 208 205 201 201 206 210 214 216 217 218 218 221 221 212 208 211 215 218 220 218 215 216 219 226 236 239 217 199 198 201 204 204 204 204 203 204 204 204 206 209 210 213 216 216 213 210 208 207 205 201 195 191 191 198 208 204 184 171 174 176 181 198
171 175 179 183 189 192 193 196 200 204 203 201 201 203 205 206 205 205 204 205 207 208 208 207 204 202 204 207 211 213 215 216 216 217 219 218 211 208 212 214 214 213 212 214 220 225 232 239 230 204 194 196 198 201 204 204 203 204 205 205 206 209 211 212 213 212 211 209 206 205 204 199 192 188 187 187 191 198 195 181 170 171 168 157 152
170 173 177 184 189 192 193 195 198 201 199 198 200 202 204 204 204 204 204 204 206 208 209 208 205 205 206 208 210 212 214 215 214 215 216 213 209 209 211 211 209 210 212 217 224 231 238 238 218 196 193 196 199 202 204 204 203 205 207 208 209 210 210 211 210 209 209 209 209 208 206 201 194 191 190 189 192 193 185 180 182 182 168 98 22
170 173 179 186 189 190 192 194 196 197 196 196 199 201 203 203 202 203 203 204 207 209 210 208 206 206 207 207 209 210 212 212 212 213 213 210 208 209 209 206 207 210 215 221 228 234 238 228 206 193 193 198 201 203 205 205 205 207 208 209 210 210 210 209 210 211 211 210 210 207 202 202 202 201 198 194 195 198 191 186 188 183 158 3 359
171 176 182 186 187 187 186 189 191 192 194 196 198 200 202 203 203 204 204 205 206 207 208 207 205 206 207 208 209 209 210 210 209 209 210 209 208 208 204 202 205 211 217 227 234 235 230 213 197 193 195 199 203 204 206 207 207 209 211 210 210 210 210 210 212 214 213 210 207 201 198 200 205 205 200 193 194 203 206 198 187 188 341 350 352
173 178 183 184 184 184 183 185 188 191 194 196 197 199 201 202 203 204 204 205 205 205 205 205 206 206 208 209 208 208 208 208 207 207 209 207 206 206 201 199 204 210 219 232 238 234 221 200 192 194 196 200 203 206 209 210 209 212 214 213 210 209 210 211 214 214 212 210 204 199 198 200 205 205 198 194 196 202 214 215 189 302 341 352 353
174 176 180 180 180 180 180 183 188 192 195 196 198 200 201 201 201 202 203 204 204 204 204 206 207 206 208 208 207 207 207 207 206 207 208 207 206 205 200 198 202 208 220 232 234 227 212 194 192 196 198 201 204 207 210 211 211 213 215 215 211 209 210 211 212 212 211 208 202 199 201 203 208 207 198 198 200 195 202 239 278 325 344 350 349
172 174 174 176 178 179 181 185 189 193 195 197 198 200 200 200 201 201 201 202 203 203 204 206 207 206 207 208 207 206 206 206 205 207 210 208 205 203 198 198 202 208 219 232 232 222 208 197 197 200 201 204 206 210 212 212 211 213 214 215 212 209 209 209 209 210 209 207 202 203 206 209 212 208 196 195 197 192 200 264 314 328 342 344 343
170 172 174 177 180 182 184 186 190 194 196 197 197 198 198 199 200 201 201 200 201 203 204 205 206 206 206 207 207 205 204 206 206 207 209 207 204 201 197 198 206 213 219 230 233 222 210 203 203 204 207 208 208 212 214 212 212 213 212 212 211 210 210 210 210 209 208 208 207 209 213 216 217 205 191 194 196 196 203 254 304 321 334 338 340
169 171 174 178 181 183 185 187 190 193 195 196 196 197 197 197 199 200 200 200 202 203 204 205 206 206 206 206 206 205 204 206 206 207 207 205 203 201 197 198 208 215 221 229 232 225 214 209 208 209 211 211 211 213 214 213 215 215 213 212 213 215 214 212 211 209 209 212 214 216 219 218 212 192 186 196 203 204 214 248 290 315 329 336 339
167 170 174 178 181 184 186 187 189 191 193 195 196 196 197 197 199 199 199 201 202 203 203 204 204 205 206 206 206 204 204 205 206 206 206 205 204 201 198 203 212 217 223 229 231 228 217 211 212 214 213 213 213 214 214 215 215 213 213 217 218 218 216 213 211 208 209 214 218 219 220 217 207 197 195 200 207 216 232 270 301 318 330 335 335
166 171 175 180 183 184 186 187 188 188 190 193 195 196 196 197 197 198 199 200 201 202 202 201 202 204 206 205 204 204 204 204 204 206 207 207 205 201 202 210 217 220 223 225 228 227 218 212 212 213 216 216 214 215 215 214 214 216 217 218 218 218 217 215 212 209 210 216 219 217 215 214 212 209 205 206 214 227 254 291 307 319 330 332 329
169 173 179 182 184 185 186 186 187 188 191 193 195 196 196 196 196 196 198 200 202 201 200 200 200 202 204 203 202 202 203 203 204 206 209 209 206 204 206 213 219 222 222 222 223 222 218 214 211 212 216 216 214 215 214 213 222 228 222 217 217 217 215 214 214 213 214 218 218 216 214 213 214 215 212 211 220 236 269 293 308 320 329 330 329
172 175 179 182 182 183 184 185 187 190 192 193 195 197 197 197 196 196 198 201 203 202 201 200 200 201 201 201 202 204 205 205 206 208 211 211 208 207 207 211 219 222 221 220 221 219 216 213 212 213 215 216 216 213 210 218 233 232 220 216 217 215 212 214 215 215 218 221 218 214 216 216 214 216 218 217 225 246 274 293 311 323 328 331 334
171 175 178 179 179 181 184 188 190 191 192 193 194 196 197 197 197 197 199 202 203 202 202 202 201 201 201 201 204 206 206 206 207 210 212 210 208 208 206 210 219 221 219 218 217 215 213 211 212 214 216 219 219 211 213 229 234 223 216 216 216 213 214 215 214 216 219 224 222 216 217 218 215 218 224 224 229 247 267 288 311 324 329 332 336
168 176 179 179 181 184 188 190 191 191 193 195 195 196 198 198 197 197 199 202 204 203 202 202 201 200 200 202 204 205 206 208 210 213 211 207 206 206 207 211 218 219 217 216 214 213 212 212 213 215 217 220 218 215 225 233 224 215 215 215 212 213 216 214 214 218 219 222 226 222 216 215 214 221 229 229 227 236 255 284 312 325 329 330 333
182 188 190 188 188 190 191 191 192 194 196 197 196 197 198 198 198 199 201 203 203 201 200 201 202 201 200 201 203 205 207 211 213 211 208 205 205 206 209 215 218 217 215 215 215 214 214 213 214 216 219 219 217 225 234 227 216 214 214 211 211 213 214 214 215 217 215 219 227 227 221 217 217 221 225 228 229 238 263 296 317 324 327 326 328
190 197 200 197 194 193 192 192 194 196 197 196 196 198 199 198 199 201 201 203 203 201 198 199 202 202 201 201 204 207 211 214 212 207 204 204 206 208 214 218 217 216 217 217 217 217 216 214 214 216 220 219 220 232 233 219 214 214 211 210 213 212 210 213 215 212 211 219 229 234 234 231 228 224 219 221 232 248 276 301 315 321 322 323 327
193 199 202 201 199 197 195 195 196 197 196 195 195 197 198 196 198 201 201 202 203 202 201 200 201 202 201 203 205 208 212 213 209 205 203 204 207 211 215 217 215 215 217 217 218 218 217 216 215 217 219 219 223 233 228 216 214 214 211 211 213 210 206 208 211 209 209 218 229 236 241 245 244 237 224 222 237 254 277 298 311 316 318 322 328
199 202 204 203 204 204 201 198 198 197 196 195 195 196 196 195 196 198 200 200 201 200 199 199 202 204 204 205 206 206 208 210 208 206 204 204 208 212 214 215 215 217 219 219 218 218 218 218 218 219 220 220 224 231 226 217 214 214 214 212 210 210 207 206 210 212 213 220 229 236 244 251 252 249 242 239 245 252 271 293 303 308 317 325 330
202 205 206 205 205 204 202 200 199 195 195 195 195 195 196 196 196 197 198 200 201 201 199 198 200 203 203 204 205 205 207 209 208 206 205 206 210 214 215 216 219 222 223 222 221 219 220 220 221 222 223 223 225 230 226 219 215 216 217 214 210 210 209 207 211 216 218 224 230 236 242 246 247 248 249 245 242 247 265 287 296 304 318 326 326
206 206 207 207 204 201 200 200 197 193 193 196 195 195 195 195 196 197 197 198 199 200 199 199 199 200 200 202 203 204 208 211 210 207 207 208 212 214 216 218 221 224 224 222 221 220 220 220 221 224 226 226 228 230 225 218 216 217 219 216 211 211 212 212 215 221 226 229 231 235 238 239 239 241 242 237 236 244 262 281 292 302 316 323 318
208 211 211 206 200 196 195 195 194 191 192 194 195 195 195 195 195 195 197 200 202 200 198 198 200 200 200 202 203 205 209 213 213 209 208 209 212 213 215 216 219 222 222 220 219 220 220 221 221 222 225 227 228 227 223 218 215 217 219 217 213 214 217 219 221 228 233 231 227 231 235 235 234 236 236 236 238 244 259 276 290 301 314 320 307
201 205 208 203 197 194 193 191 191 190 190 192 194 194 193 194 195 194 193 197 202 202 201 200 200 201 201 203 206 209 212 214 213 210 208 210 212 213 213 215 219 220 219 218 219 221 221 221 220 219 222 224 224 223 222 220 218 217 218 218 217 217 219 221 223 227 231 227 224 230 235 235 234 236 237 238 239 244 257 273 288 301 313 313 290
190 195 200 199 195 191 188 186 187 189 191 192 194 193 191 192 196 195 194 194 196 199 201 201 201 202 204 206 210 213 213 210 210 211 210 211 212 214 216 218 219 220 220 220 221 223 221 217 215 216 219 220 220 220 223 226 225 221 219 219 219 219 220 221 222 222 222 223 226 232 235 233 234 239 239 237 238 244 256 271 284 297 308 308 289
186 191 196 196 189 184 183 183 185 188 191 192 192 191 190 192 195 197 198 199 198 197 197 199 200 202 205 208 209 209 209 207 207 210 211 211 212 214 216 218 219 219 219 218 219 221 219 213 213 216 216 216 218 221 226 232 230 224 221 220 218 219 221 221 221 220 220 222 227 230 228 224 229 237 236 234 240 248 255 266 277 283 294 309 308
191 193 192 189 184 179 178 181 183 185 188 190 191 190 190 192 195 196 197 199 200 198 197 198 200 201 203 204 203 202 204 208 209 208 208 210 212 214 216 217 217 217 216 215 217 219 216 214 215 216 214 215 219 224 231 235 229 224 223 220 216 218 219 218 220 222 223 225 228 226 224 224 233 241 237 235 246 255 257 260 263 258 267 308 343
188 186 182 180 178 175 174 176 180 184 186 187 190 192 190 190 192 195 197 197 195 194 194 194 196 199 200 198 196 197 203 210 211 209 207 209 212 214 215 215 215 214 215 217 219 219 218 216 216 217 217 219 222 228 234 234 225 222 223 219 216 217 215 213 217 223 225 228 230 228 225 228 237 244 244 246 253 257 253 251 248 244 260 303 323
165 171 174 176 176 174 175 176 178 182 185 186 191 196 193 190 190 192 195 195 193 194 195 195 195 195 194 193 194 199 206 211 213 212 211 211 212 213 215 215 214 215 218 220 220 220 219 218 217 219 223 226 228 234 237 230 220 219 219 216 215 215 212 210 215 221 224 229 231 228 226 227 233 241 248 253 256 254 247 241 238 250 285 306 300
163 166 169 174 174 173 174 176 177 181 184 186 190 194 193 192 190 190 192 194 197 200 200 198 196 195 194 196 200 206 210 212 212 211 211 212 213 214 215 216 216 216 218 220 222 222 220 219 218 220 227 232 235 239 237 224 216 217 218 215 214 215 213 211 214 218 223 228 230 229 227 228 232 240 248 253 256 253 245 234 231 259 281 291 296
178 177 169 167 169 170 172 175 177 181 184 186 186 185 187 191 191 193 196 197 199 202 202 199 198 198 198 201 207 212 213 210 209 210 212 214 215 216 218 221 223 224 224 224 224 224 222 220 220 224 231 236 239 238 231 221 217 218 219 217 215 216 216 216 216 219 223 226 228 229 229 230 234 240 247 253 255 252 243 231 233 259 264 268 277
178 182 176 170 172 174 174 174 174 176 180 183 182 182 188 192 191 193 198 199 198 199 199 198 198 199 200 204 209 213 213 210 209 212 214 216 217 218 221 225 228 231 233 235 234 231 226 224 228 235 239 241 239 234 225 219 221 223 223 223 222 222 223 222 220 221 223 225 228 230 231 234 237 242 248 253 255 252 242 231 235 256 260 263 271
173 178 175 173 179 180 176 175 173 171 173 177 181 184 189 191 191 193 198 201 199 197 196 197 198 200 203 208 212 214 213 213 213 213 212 213 214 216 220 225 228 229 232 236 240 238 234 235 240 245 247 247 248 245 234 227 227 226 224 225 227 228 229 226 224 223 223 225 229 232 234 237 239 242 249 253 252 249 238 227 231 249 269 280 287
172 179 172 168 176 182 179 179 179 176 175 177 181 184 185 187 192 194 196 200 201 200 200 201 201 203 209 215 216 214 213 212 213 213 211 209 208 210 214 220 226 229 230 232 233 232 233 239 243 244 244 244 246 246 242 238 236 230 224 222 222 224 225 225 225 225 226 226 229 232 236 238 240 243 248 250 249 246 240 234 236 248 268 281 287